Los Angeles, CA

12:57 AM PDT on September 26, 2017 (GMT -0700)
Los Angeles International

Weather History for KLAX - May, 2013

Change the Weather History Date:

Friday, May 10, 2013

  Actual Average Record
Temperature  
Mean Temperature 65 °F 62 °F  
Max Temperature 70 °F 68 °F 79 °F (1996)
Min Temperature 59 °F 57 °F 50 °F (2003)
Degree Days  
Heating Degree Days 0 3  
Month to date heating degree days 4 35  
Since 1 July heating degree days 1134 1343  
Cooling Degree Days 0 0  
Month to date cooling degree days 16 4  
Year to date cooling degree days 36 30  
Growing Degree Days 14 (Base 50)    
Moisture  
Dew Point 57 °F    
Average Humidity 77    
Maximum Humidity 90    
Minimum Humidity 63    
Precipitation  
Precipitation 0.00 in 0.01 in 0.05 in (1980)
Month to date precipitation 0.39 0.10  
Year to date precipitation 2.61 8.61  
Since 1 July precipitation 6.89  
Sea Level Pressure  
Sea Level Pressure 30.07 in    
Wind  
Wind Speed 7 mph (WSW)    
Max Wind Speed 20 mph    
Max Gust Speed 24 mph    
Visibility 9 miles    
Events Fog    
T = Trace of Precipitation, MM = Missing Value Source: NWS Daily Summary

Daily Weather History Graph

Daily Weather History Graph

Search for Another Location

Airport or City:

Trip Planner

Search our weather history database for the weather conditions in past years. The results will help you decide how hot, cold, wet, or windy it might be!

Date:

Astronomy

May. 10, 2013 Rise Set
Actual Time 5:55 AM PDT 7:44 PM PDT
Civil Twilight 5:28 AM PDT 8:11 PM PDT
Nautical Twilight 4:55 AM PDT 8:44 PM PDT
Astronomical Twilight 4:20 AM PDT 9:20 PM PDT
Moon 6:23 AM PDT (5/10) 8:37 PM PDT (5/10)
Length of Visible Light 14h 43m
Length of Day
13h 48m
New Moon, 1% of the Moon is Illuminated
May 10
New Moon
May 17
First Quarter
May 24
Full
May 31
Last Quarter
Jun 8
New

Hourly Weather History & Observations

Time (PDT) Temp. Dew Point Humidity Pressure Visibility Wind Dir Wind Speed Gust Speed Precip Events Conditions
12:53 AM 62.1 °F 55.9 °F 80% 30.07 in 10.0 mi NNW 3.5 mph - N/A   Scattered Clouds
1:53 AM 62.1 °F 55.9 °F 80% 30.07 in 10.0 mi NNW 4.6 mph - N/A   Mostly Cloudy
2:53 AM 61.0 °F 55.9 °F 83% 30.06 in 10.0 mi Calm Calm - N/A   Scattered Clouds
3:53 AM 61.0 °F 57.0 °F 87% 30.06 in 10.0 mi Calm Calm - N/A   Scattered Clouds
4:53 AM 61.0 °F 57.0 °F 87% 30.06 in 10.0 mi SE 3.5 mph - N/A   Scattered Clouds
5:53 AM 60.1 °F 55.9 °F 86% 30.06 in 7.0 mi ENE 4.6 mph - N/A Fog Patches of Fog
6:53 AM 61.0 °F 57.0 °F 87% 30.07 in 6.0 mi East 5.8 mph - N/A Fog Patches of Fog
7:53 AM 64.0 °F 57.0 °F 78% 30.08 in 6.0 mi East 4.6 mph - N/A   Haze
8:44 AM 64.4 °F 57.2 °F 77% 30.09 in 6.0 mi SSE 3.5 mph - N/A   Haze
8:53 AM 64.9 °F 57.0 °F 75% 30.09 in 6.0 mi Calm Calm - N/A   Haze
9:53 AM 68.0 °F 57.0 °F 68% 30.09 in 6.0 mi West 10.4 mph - N/A   Haze
10:53 AM 66.9 °F 55.9 °F 68% 30.10 in 7.0 mi West 10.4 mph 20.7 mph N/A   Mostly Cloudy
11:53 AM 68.0 °F 55.9 °F 65% 30.09 in 8.0 mi West 9.2 mph - N/A   Scattered Clouds
12:53 PM 68.0 °F 57.0 °F 68% 30.08 in 9.0 mi West 9.2 mph - N/A   Scattered Clouds
1:53 PM 69.1 °F 57.0 °F 65% 30.06 in 10.0 mi West 13.8 mph - N/A   Scattered Clouds
2:48 PM 69.8 °F 57.2 °F 64% 30.05 in 10.0 mi WSW 13.8 mph - N/A   Scattered Clouds
2:53 PM 69.8 °F 57.2 °F 64% 30.05 in 10.0 mi WSW 13.8 mph - N/A   Scattered Clouds
3:53 PM 70.0 °F 57.9 °F 65% 30.03 in 10.0 mi West 15.0 mph - N/A   Scattered Clouds
4:53 PM 68.0 °F 57.9 °F 70% 30.02 in 10.0 mi West 16.1 mph 24.2 mph N/A   Scattered Clouds
5:53 PM 66.9 °F 59.0 °F 76% 30.01 in 10.0 mi WSW 15.0 mph - N/A   Scattered Clouds
6:53 PM 64.9 °F 57.0 °F 75% 30.01 in 10.0 mi WSW 10.4 mph - N/A Fog Patches of Fog
7:53 PM 64.0 °F 57.0 °F 78% 30.04 in 9.0 mi WSW 9.2 mph - N/A   Scattered Clouds
8:53 PM 63.0 °F 57.9 °F 84% 30.06 in 10.0 mi WSW 8.1 mph - N/A   Partly Cloudy
9:53 PM 63.0 °F 57.9 °F 84% 30.08 in 9.0 mi Calm Calm - N/A   Partly Cloudy
10:25 PM 62.6 °F 57.2 °F 82% 30.09 in 8.0 mi Calm Calm - N/A   Mostly Cloudy
10:35 PM 62.6 °F 57.2 °F 82% 30.08 in 8.0 mi Calm Calm - N/A   Scattered Clouds
10:43 PM 62.6 °F 57.2 °F 82% 30.08 in 8.0 mi WSW 3.5 mph - N/A   Partly Cloudy
10:53 PM 63.0 °F 57.9 °F 84% 30.08 in 8.0 mi WSW 3.5 mph - N/A   Scattered Clouds
11:53 PM 62.1 °F 57.9 °F 86% 30.08 in 9.0 mi SW 4.6 mph - N/A   Scattered Clouds